Overview Statistics Trail Chart Weather Telemetry Raw packets
 

This is the latest recevied weather packets stored in our database for station/object VU2EXP-13. If no packets are shown the sender has not sent any weather packets the latest 10 day(s).

<< 25 26 27 28 29 30 31 >>
Time Temp. Humidity Pressure Rain* Wind** Luminosity Snow
1787730346 32.78° C 50% 991.4 hPa - - - -
1787729446 32.78° C 51% 991.5 hPa - - - -
1787728546 32.78° C 51% 991.8 hPa - - - -
1787727646 32.78° C 51% 992 hPa - - - -
1787726745 32.78° C 51% 992 hPa - - - -
1787725845 32.22° C 53% 992.1 hPa - - - -
1787724946 32.78° C 52% 992.3 hPa - - - -
1787724061 32.22° C 54% 987.2 hPa - - - -
1787724018 32.22° C 54% 992.4 hPa - - - -
1787723118 31.67° C 55% 992.5 hPa - - - -
1787723118 31.67° C 55% 992.5 hPa - - - -
1787722218 31.67° C 55% 992.5 hPa - - - -
1787721317 31.67° C 55% 992.6 hPa - - - -
1787720417 31.11° C 57% 992.8 hPa - - - -
1787719529 30.56° C 59% 988 hPa - - - -
1787718899 30.56° C 60% 992.9 hPa - - - -
1787717998 30.56° C 61% 992.9 hPa - - - -
1787717098 30° C 64% 993 hPa - - - -
1787716209 29.44° C 65% 988.2 hPa - - - -
1787715539 29.44° C 66% 992.9 hPa - - - -
1787714639 28.89° C 68% 992.8 hPa - - - -
1787713739 28.89° C 70% 992.7 hPa - - - -
1787712838 28.33° C 71% 992.4 hPa - - - -
1787711938 28.33° C 72% 992.4 hPa - - - -
1787711038 28.33° C 73% 992.3 hPa - - - -

* Rain since midnight (hover to see other rain measurements)
** Current wind speed in m/s (hover to see current wind gust speed)